SA3PJN-WX Weather Reports


time (UTC)temp
C
wind
direction
speed
KPH
gust
KPH
rain 1hr
cm
rain 24hr
cm
rain mn
cm
humidity
%
barometer
mb
20260902142519 16 232 4.8 17.7 0.00 0.00 0.00 71 956.4
20260902142019 17 260 8.0 24.1 0.00 0.00 0.00 70 956.5
20260902141519 17 175 12.9 27.4 0.00 0.00 0.00 70 956.4
20260902141019 17 104 12.9 27.4 0.00 0.00 0.00 69 956.4
20260902140519 17 100 12.9 25.7 0.00 0.00 0.00 68 956.5
20260902140018 17 226 11.3 25.7 0.00 0.00 0.00 68 956.5
20260902135518 18 97 8.0 25.7 0.00 0.00 0.00 66 956.5
20260902135018 17 118 8.0 22.5 0.00 0.00 0.00 68 956.6
20260902134518 17 146 12.9 24.1 0.00 0.00 0.00 68 956.6
20260902134018 17 109 12.9 24.1 0.00 0.00 0.00 66 956.7
20260902133518 18 108 12.9 22.5 0.00 0.00 0.00 64 956.5
20260902133018 18 75 11.3 22.5 0.00 0.00 0.00 65 956.6
20260902132518 17 115 9.7 22.5 0.00 0.00 0.00 67 956.5
20260902132018 17 74 9.7 19.3 0.00 0.00 0.00 70 956.7
20260902131518 16 104 11.3 19.3 0.00 0.00 0.00 71 956.7
20260902131018 16 112 11.3 20.9 0.00 0.00 0.00 70 956.8
20260902130518 17 107 11.3 20.9 0.00 0.00 0.00 67 956.9
20260902130018 18 86 9.7 19.3 0.00 0.00 0.00 68 957.0
20260902125518 17 113 9.7 19.3 0.00 0.00 0.00 66 957.0
20260902125017 17 107 9.7 20.9 0.00 0.00 0.00 65 956.9
20260902124517 18 95 11.3 24.1 0.00 0.00 0.00 70 957.0
20260902124017 17 134 11.3 24.1 0.00 0.00 0.00 71 957.1
20260902123517 17 66 12.9 24.1 0.00 0.00 0.00 67 957.1
20260902123017 17 109 12.9 24.1 0.00 0.00 0.00 68 957.1
20260902122517 18 164 12.9 24.1 0.00 0.00 0.00 68 957.2
20260902122017 17 87 12.9 25.7 0.00 0.00 0.00 70 957.3
20260902121517 17 114 11.3 25.7 0.00 0.00 0.00 68 957.3
20260902121017 18 111 9.7 22.5 0.00 0.00 0.00 71 957.4
20260902120517 18 105 9.7 24.1 0.00 0.00 0.00 71 957.4
20260902120017 17 98 9.7 24.1 0.00 0.00 0.00 71 957.5
20260902115517 17 115 6.4 17.7 0.00 0.00 0.00 71 957.4
20260902115017 18 152 4.8 16.1 0.00 0.00 0.00 73 957.5
20260902114517 18 217 3.2 16.1 0.00 0.00 0.00 75 957.6
20260902114016 17 82 6.4 24.1 0.00 0.00 0.00 76 957.5
20260902113516 16 239 9.7 24.1 0.00 0.00 0.00 78 957.5
20260902113016 16 99 9.7 22.5 0.00 0.00 0.00 77 957.6
20260902112516 16 67 9.7 16.1 0.00 0.00 0.00 77 957.6
20260902112016 16 83 9.7 19.3 0.00 0.00 0.00 78 957.6
20260902111516 16 91 9.7 19.3 0.00 0.00 0.00 77 957.6
20260902111016 16 87 8.0 17.7 0.00 0.00 0.00 77 957.7
20260902110516 16 114 6.4 14.5 0.00 0.00 0.00 77 957.8
20260902110016 16 110 4.8 14.5 0.00 0.00 0.00 76 957.8
20260902105516 16 104 6.4 14.5 0.00 0.00 0.00 79 957.8
20260902105016 16 120 8.0 14.5 0.00 0.00 0.00 78 957.8
20260902104516 16 76 4.8 12.9 0.00 0.00 0.00 73 957.7
20260902104016 17 67 6.4 16.1 0.00 0.00 0.00 76 957.9
20260902103516 16 82 8.0 16.1 0.00 0.00 0.00 76 957.8
20260902103016 17 98 8.0 16.1 0.00 0.00 0.00 73 957.9
20260902102516 17 71 6.4 14.5 0.00 0.00 0.00 75 957.8
20260902102015 17 112 6.4 17.7 0.00 0.00 0.00 74 957.8
20260902101515 17 283 6.4 17.7 0.00 0.00 0.00 77 958.0
20260902101015 17 129 6.4 17.7 0.00 0.00 0.00 77 957.9
20260902100515 16 97 4.8 16.1 0.00 0.00 0.00 76 957.9
20260902100015 17 76 3.2 16.1 0.00 0.00 0.00 74 958.0
20260902095515 17 38 3.2 11.3 0.00 0.00 0.00 78 958.0
20260902095015 16 286 4.8 11.3 0.00 0.00 0.00 80 958.0
20260902094515 16 113 4.8 12.9 0.00 0.00 0.00 77 957.9
20260902094015 16 98 4.8 12.9 0.00 0.00 0.00 77 958.0
20260902093515 17 222 3.2 14.5 0.00 0.00 0.00 75 958.3
20260902093015 18 76 4.8 17.7 0.00 0.00 0.00 74 958.2
20260902092515 18 147 4.8 17.7 0.00 0.00 0.00 76 958.4
20260902092015 18 315 4.8 14.5 0.00 0.00 0.00 81 958.2
20260902091515 16 128 6.4 14.5 0.00 0.00 0.00 86 958.3
20260902091015 15 110 8.0 17.7 0.00 0.00 0.00 87 958.2
20260902090514 14 112 8.0 17.7 0.00 0.00 0.00 88 958.1
20260902090014 15 113 6.4 16.1 0.00 0.00 0.00 86 958.1
20260902085514 15 114 4.8 14.5 0.00 0.00 0.00 87 958.3
20260902085014 14 76 8.0 16.1 0.00 0.00 0.00 86 958.1
20260902084514 13 242 8.0 16.1 0.00 0.00 0.00 92 958.2
20260902084014 13 71 9.7 17.7 0.00 0.00 0.00 88 958.0
20260902083514 13 82 9.7 17.7 0.00 0.00 0.00 88 958.2
20260902083014 13 60 8.0 17.7 0.00 0.00 0.00 87 957.8
20260902082514 13 111 8.0 14.5 0.00 0.00 0.00 89 957.9
20260902082014 12 72 8.0 14.5 0.00 0.00 0.00 92 957.9
20260902081514 13 94 8.0 14.5 0.00 0.00 0.00 91 957.9
20260902081014 12 76 8.0 14.5 0.00 0.00 0.00 93 957.9
20260902080514 12 5 9.7 16.1 0.00 0.00 0.00 93 957.9
20260902080014 12 52 8.0 16.1 0.00 0.00 0.00 92 958.0
20260902075514 13 66 6.4 14.5 0.00 0.00 0.00 89 957.9
20260902075014 13 121 4.8 11.3 0.00 0.00 0.00 91 958.3
20260902074513 12 102 6.4 11.3 0.00 0.00 0.00 94 958.3
20260902074013 12 112 6.4 11.3 0.00 0.00 0.00 95 958.4
20260902073513 12 105 6.4 11.3 0.00 0.00 0.00 95 958.3
20260902073013 12 126 6.4 12.9 0.00 0.00 0.00 96 958.3
20260902072513 11 91 8.0 14.5 0.00 0.00 0.00 98 958.3
20260902072013 11 120 8.0 14.5 0.00 0.00 0.00 98 958.3
20260902071513 10 82 8.0 12.9 0.00 0.00 0.00 98 958.2
20260902071013 10 63 6.4 12.9 0.00 0.00 0.00 98 958.2
20260902070513 10 64 4.8 12.9 0.00 0.00 0.00 98 958.2
20260902070013 10 28 6.4 12.9 0.00 0.00 0.00 98 958.2
20260902065513 10 75 8.0 12.9 0.00 0.00 0.00 98 958.3
20260902065013 10 65 8.0 12.9 0.00 0.00 0.00 98 958.2
20260902064513 10 82 8.0 12.9 0.00 0.00 0.00 98 958.4
20260902064013 10 58 8.0 12.9 0.00 0.00 0.00 98 958.4
20260902063513 10 59 9.7 12.9 0.00 0.00 0.00 99 958.5
20260902063013 9 72 9.7 16.1 0.00 0.00 0.00 99 958.4
20260902062512 9 81 9.7 16.1 0.00 0.00 0.00 99 958.4
20260902062012 9 79 9.7 14.5 0.00 0.00 0.00 99 958.4
20260902061512 9 68 8.0 14.5 0.00 0.00 0.00 99 958.5
20260902061012 8 72 8.0 12.9 0.00 0.00 0.00 99 958.4
20260902060512 8 65 8.0 12.9 0.00 0.00 0.00 99 958.3
20260902060012 8 64 8.0 12.9 0.00 0.00 0.00 99 958.5
20260902055512 8 13 6.4 12.9 0.00 0.00 0.00 98 958.5
20260902055012 8 60 4.8 12.9 0.00 0.00 0.00 98 958.5
20260902054512 8 29 6.4 19.3 0.00 0.00 0.00 98 958.4
20260902054012 8 53 8.0 19.3 0.00 0.00 0.00 98 958.5
20260902053512 8 67 9.7 19.3 0.00 0.00 0.00 98 958.5
20260902053012 8 64 9.7 16.1 0.00 0.00 0.00 98 958.5
20260902052512 8 68 9.7 16.1 0.00 0.00 0.00 98 958.6
20260902052012 8 76 8.0 12.9 0.00 0.00 0.00 98 958.6
20260902051512 8 58 6.4 11.3 0.00 0.00 0.00 98 958.6
20260902051011 8 77 4.8 9.7 0.00 0.00 0.00 98 958.5
20260902050511 7 346 4.8 9.7 0.00 0.00 0.00 98 958.5
20260902050011 7 323 4.8 8.0 0.00 0.00 0.00 98 958.7
20260902045511 7 331 4.8 9.7 0.00 0.00 0.00 98 958.6
20260902045011 8 316 4.8 9.7 0.00 0.00 0.00 97 958.6
20260902044511 8 312 4.8 9.7 0.00 0.00 0.00 97 958.6
20260902044011 8 356 4.8 8.0 0.00 0.00 0.00 97 958.7
20260902043511 8 338 4.8 8.0 0.00 0.00 0.00 97 958.7
20260902043011 8 357 3.2 9.7 0.00 0.00 0.00 97 958.7
20260902042511 8 9 3.2 9.7 0.00 0.00 0.00 97 958.8
20260902042011 8 358 3.2 9.7 0.00 0.00 0.00 98 958.9
20260902041511 7 76 3.2 12.9 0.00 0.00 0.00 98 958.9
20260902041011 7 353 4.8 12.9 0.00 0.00 0.00 99 958.9
20260902040511 7 25 4.8 9.7 0.00 0.00 0.00 99 958.9
20260902040011 7 354 4.8 9.7 0.00 0.00 0.00 10 959.0
20260902035511 6 345 4.8 8.0 0.00 0.00 0.00 10 959.0
20260902035011 6 321 4.8 8.0 0.00 0.00 0.00 10 959.1
20260902034510 6 327 4.8 8.0 0.00 0.00 0.00 10 959.0
20260902034010 6 316 6.4 8.0 0.00 0.00 0.00 10 959.0
20260902033510 6 306 6.4 8.0 0.00 0.00 0.00 10 959.0
20260902033010 6 305 6.4 8.0 0.00 0.00 0.00 10 959.1
20260902032510 6 306 6.4 8.0 0.00 0.00 0.00 10 959.1
20260902032010 6 331 6.4 9.7 0.00 0.00 0.00 10 959.2
20260902031510 6 315 6.4 9.7 0.00 0.00 0.00 10 959.3
20260902031010 6 318 6.4 9.7 0.00 0.00 0.00 99 959.1
20260902030510 6 330 6.4 11.3 0.00 0.00 0.00 99 959.2
20260902030010 6 332 4.8 11.3 0.00 0.00 0.00 98 959.4
20260902025510 7 340 4.8 9.7 0.00 0.00 0.00 98 959.4
20260902025010 6 319 6.4 9.7 0.00 0.00 0.00 98 959.5
20260902024510 7 306 6.4 9.7 0.00 0.00 0.00 98 959.5
20260902024010 7 309 6.4 9.7 0.00 0.00 0.00 98 959.6
20260902023510 7 307 4.8 9.7 0.00 0.00 0.00 97 959.6
20260902023010 7 11 4.8 8.0 0.00 0.00 0.00 97 959.7
20260902022509 7 317 4.8 9.7 0.00 0.00 0.00 97 959.7
20260902022009 7 330 6.4 9.7 0.00 0.00 0.00 96 959.8
20260902021509 7 303 4.8 9.7 0.00 0.00 0.00 95 959.7
20260902021009 7 322 4.8 8.0 0.00 0.00 0.00 95 959.7
20260902020509 7 317 4.8 8.0 0.00 0.00 0.00 94 959.8
20260902020009 7 328 4.8 9.7 0.00 0.00 0.00 93 959.9
20260902015509 7 321 6.4 9.7 0.00 0.00 0.00 92 960.0
20260902015009 8 341 4.8 8.0 0.00 0.00 0.00 91 959.9
20260902014509 8 317 4.8 8.0 0.00 0.00 0.00 90 959.9
20260902014009 8 333 4.8 9.7 0.00 0.00 0.00 89 960.1
20260902013509 8 346 4.8 9.7 0.00 0.00 0.00 89 960.1
20260902013009 8 12 4.8 9.7 0.00 0.00 0.00 89 960.0
20260902012509 8 18 4.8 9.7 0.00 0.00 0.00 89 960.1
20260902012009 8 348 4.8 9.7 0.00 0.00 0.00 90 960.1
20260902011508 8 359 4.8 9.7 0.00 0.00 0.00 90 960.2
20260902011008 8 341 4.8 9.7 0.00 0.00 0.00 90 960.2
20260902010508 8 328 4.8 8.0 0.00 0.00 0.00 90 960.4
20260902010008 8 13 4.8 8.0 0.00 0.00 0.00 89 960.3
20260902005508 8 330 4.8 9.7 0.00 0.00 0.00 87 960.4
20260902005008 8 356 4.8 9.7 0.00 0.00 0.00 87 960.4
20260902004508 8 353 4.8 9.7 0.00 0.00 0.00 87 960.5
20260902004008 8 356 4.8 9.7 0.00 0.00 0.00 87 960.6
20260902003508 8 358 3.2 8.0 0.00 0.00 0.00 87 960.5
20260902003008 8 356 3.2 4.8 0.00 0.00 0.00 87 960.6
20260902002508 8 330 3.2 8.0 0.00 0.00 0.00 87 960.7
20260902002008 8 317 3.2 8.0 0.00 0.00 0.00 86 960.7
20260902001508 8 340 3.2 8.0 0.00 0.00 0.00 86 960.7
20260902001008 8 348 3.2 8.0 0.00 0.00 0.00 87 960.7
20260902000508 8 345 3.2 8.0 0.00 0.00 0.00 87 960.7
20260902000007 9 350 4.8 8.0 0.00 0.00 0.00 87 960.9
20260901235507 8 326 3.2 8.0 0.00 0.00 0.00 87 960.8
20260901235007 8 347 3.2 6.4 0.00 0.00 0.00 87 961.0
20260901234507 8 15 3.2 8.0 0.00 0.00 0.00 87 961.2
20260901234007 9 8 4.8 9.7 0.00 0.00 0.00 87 961.1
20260901233507 9 56 6.4 9.7 0.00 0.00 0.00 87 961.2
20260901233007 9 63 6.4 11.3 0.00 0.00 0.00 87 961.2
20260901232507 9 57 6.4 11.3 0.00 0.00 0.00 87 961.2
20260901232007 9 75 4.8 9.7 0.00 0.00 0.00 87 961.2
20260901231507 9 31 3.2 9.7 0.00 0.00 0.00 88 961.2
20260901231007 9 30 3.2 8.0 0.00 0.00 0.00 89 961.2
20260901230507 9 353 3.2 9.7 0.00 0.00 0.00 90 961.2
20260901230007 9 5 3.2 14.5 0.00 0.00 0.00 90 961.2
20260901225507 9 35 3.2 14.5 0.00 0.00 0.00 91 961.2
20260901225007 9 4 3.2 9.7 0.00 0.00 0.00 91 961.2
20260901224506 9 58 3.2 9.7 0.00 0.00 0.00 91 961.3
20260901224006 9 59 3.2 8.0 0.00 0.00 0.00 91 961.3
20260901223506 9 352 3.2 8.0 0.00 0.00 0.00 92 961.4
20260901223006 9 52 3.2 8.0 0.00 0.00 0.00 93 961.4
20260901222506 9 87 3.2 9.7 0.00 0.00 0.00 94 961.3
20260901222006 9 54 3.2 9.7 0.00 0.00 0.00 94 961.4
20260901221506 9 16 3.2 8.0 0.00 0.00 0.00 93 961.4
20260901221006 9 352 4.8 9.7 0.00 0.00 0.00 91 961.5
20260901220506 9 2 4.8 9.7 0.00 0.00 0.00 89 961.5
20260901220006 9 350 4.8 8.0 0.00 0.00 0.00 87 961.5
20260901215506 10 350 4.8 9.7 0.00 0.00 0.00 87 961.5
20260901215006 10 331 4.8 9.7 0.00 0.00 0.00 85 961.5
20260901214506 10 341 4.8 9.7 0.00 0.00 0.00 85 961.5
20260901214006 10 338 4.8 9.7 0.00 0.00 0.00 85 961.5
20260901213506 10 339 4.8 6.4 0.00 0.00 0.00 85 961.5
20260901213006 10 325 4.8 6.4 0.00 0.00 0.00 84 961.6
20260901212506 10 325 4.8 8.0 0.00 0.00 0.00 85 961.6
20260901212005 10 335 4.8 8.0 0.00 0.00 0.00 84 961.7
20260901211505 10 325 4.8 8.0 0.00 0.00 0.00 85 961.7
20260901211005 10 334 4.8 8.0 0.00 0.00 0.00 84 961.8
20260901210505 10 325 4.8 8.0 0.00 0.00 0.00 84 961.7
20260901210005 10 324 4.8 8.0 0.00 0.00 0.00 84 961.7
20260901205505 10 337 4.8 6.4 0.00 0.00 0.00 84 961.8
20260901205005 10 330 4.8 6.4 0.00 0.00 0.00 85 961.8
20260901204505 10 337 4.8 6.4 0.00 0.00 0.00 85 961.8
20260901204005 10 315 4.8 6.4 0.00 0.00 0.00 85 961.8
20260901203505 10 319 4.8 6.4 0.00 0.00 0.00 85 961.8
20260901203005 10 327 4.8 6.4 0.00 0.00 0.00 85 961.8
20260901202505 10 320 4.8 6.4 0.00 0.00 0.00 85 961.8
20260901202005 10 341 4.8 6.4 0.00 0.00 0.00 85 961.8
20260901201504 10 323 4.8 6.4 0.00 0.00 0.00 84 961.7
20260901201004 10 303 4.8 8.0 0.00 0.00 0.00 84 961.8
20260901200504 10 317 4.8 8.0 0.00 0.00 0.00 84 961.8
20260901200004 10 297 4.8 6.4 0.00 0.00 0.00 84 961.9
20260901195504 10 304 4.8 6.4 0.00 0.00 0.00 85 961.8
20260901195004 10 310 4.8 8.0 0.00 0.00 0.00 85 961.8
20260901194504 10 316 4.8 8.0 0.00 0.00 0.00 83 962.0
20260901194004 10 296 1.6 4.8 0.00 0.00 0.00 84 961.9
20260901193504 11 306 1.6 4.8 0.00 0.00 0.00 85 961.9
20260901193004 11 285 1.6 3.2 0.00 0.00 0.00 85 962.0
20260901192504 11 265 0.0 3.2 0.00 0.00 0.00 86 962.1
20260901192004 11 284 1.6 4.8 0.00 0.00 0.00 84 962.1
20260901191504 11 100 1.6 4.8 0.00 0.00 0.00 87 962.1
20260901191003 11 314 1.6 3.2 0.00 0.00 0.00 84 962.0
20260901190503 11 328 1.6 3.2 0.00 0.00 0.00 84 962.0
20260901190003 11 272 1.6 3.2 0.00 0.00 0.00 85 962.0
20260901185503 11 261 1.6 3.2 0.00 0.00 0.00 84 961.9
20260901185003 11 280 1.6 3.2 0.00 0.00 0.00 82 961.9
20260901184503 11 308 1.6 3.2 0.00 0.00 0.00 82 961.9
20260901184003 11 285 1.6 3.2 0.00 0.00 0.00 81 961.9
20260901183503 11 283 1.6 3.2 0.00 0.00 0.00 80 961.9
20260901183003 12 305 1.6 3.2 0.00 0.00 0.00 79 962.0
20260901182503 12 314 1.6 1.6 0.00 0.00 0.00 80 962.0
20260901182003 12 314 1.6 3.2 0.00 0.00 0.00 80 962.0
20260901181503 12 333 1.6 3.2 0.00 0.00 0.00 80 962.0
20260901181002 12 313 1.6 3.2 0.00 0.00 0.00 79 962.0
20260901180502 12 309 1.6 3.2 0.00 0.00 0.00 81 962.0
20260901180002 12 317 1.6 4.8 0.00 0.00 0.00 77 962.3
20260901175502 12 273 1.6 4.8 0.00 0.00 0.00 76 962.1
20260901175002 13 284 1.6 3.2 0.00 0.00 0.00 75 962.0
20260901174502 13 303 1.6 3.2 0.00 0.00 0.00 75 962.1
20260901174002 13 335 1.6 3.2 0.00 0.00 0.00 73 962.1
20260901173502 13 338 1.6 3.2 0.00 0.00 0.00 73 962.0
20260901173002 14 309 1.6 3.2 0.00 0.00 0.00 70 961.9
20260901172502 14 328 1.6 3.2 0.00 0.00 0.00 70 961.9
20260901172002 14 323 1.6 3.2 0.00 0.00 0.00 72 961.9
20260901171502 14 86 1.6 3.2 0.00 0.00 0.00 68 962.0
20260901171002 14 358 1.6 3.2 0.00 0.00 0.00 68 962.0
20260901170502 14 310 1.6 6.4 0.00 0.00 0.00 69 962.0
20260901170001 14 343 1.6 6.4 0.00 0.00 0.00 68 962.0
20260901165501 15 6 1.6 4.8 0.00 0.00 0.00 67 962.1
20260901165001 15 28 1.6 4.8 0.00 0.00 0.00 68 962.1
20260901164501 15 268 3.2 6.4 0.00 0.00 0.00 66 962.1
20260901164001 15 276 3.2 6.4 0.00 0.00 0.00 66 962.2
20260901163501 15 257 1.6 6.4 0.00 0.00 0.00 65 962.3
20260901163001 15 27 1.6 6.4 0.00 0.00 0.00 67 962.3
20260901162501 15 356 3.2 11.3 0.00 0.00 0.00 65 962.2
20260901162001 15 321 4.8 11.3 0.00 0.00 0.00 66 962.1
20260901161501 15 233 4.8 11.3 0.00 0.00 0.00 66 962.1
20260901161001 15 263 4.8 12.9 0.00 0.00 0.00 67 962.0
20260901160501 15 277 6.4 12.9 0.00 0.00 0.00 67 962.0
20260901160001 15 226 4.8 11.3 0.00 0.00 0.00 65 961.9
20260901155501 15 281 4.8 14.5 0.00 0.00 0.00 66 961.9
20260901155001 15 327 4.8 14.5 0.00 0.00 0.00 66 962.1
20260901154500 15 235 4.8 14.5 0.00 0.00 0.00 66 962.1
20260901154000 15 248 4.8 14.5 0.00 0.00 0.00 64 962.1
20260901153500 15 257 4.8 11.3 0.00 0.00 0.00 65 962.1
20260901153000 15 244 4.8 11.3 0.00 0.00 0.00 64 962.1
20260901152500 15 267 6.4 16.1 0.00 0.00 0.00 63 962.2
20260901152000 15 243 6.4 16.1 0.00 0.00 0.00 65 962.3
20260901151500 15 271 4.8 16.1 0.00 0.00 0.00 63 962.4
20260901151000 15 123 4.8 14.5 0.00 0.00 0.00 63 962.4
20260901150500 15 236 4.8 14.5 0.00 0.00 0.00 65 962.5
20260901150000 15 243 4.8 14.5 0.00 0.00 0.00 63 962.5
20260901145500 15 244 6.4 14.5 0.00 0.00 0.00 63 962.5
20260901145000 16 195 4.8 14.5 0.00 0.00 0.00 61 962.5
20260901144500 16 146 4.8 14.5 0.00 0.00 0.00 61 962.5
20260901144000 16 261 4.8 14.5 0.00 0.00 0.00 60 962.5
20260901143500 16 87 3.2 16.1 0.00 0.00 0.00 57 962.7
20260901143000 16 116 4.8 16.1 0.00 0.00 0.00 57 962.6